TimePDT,TemperatureF,Dew PointF,Humidity,Sea Level PressureIn,VisibilityMPH,Wind Direction,Wind SpeedMPH,Gust SpeedMPH,PrecipitationIn,Events,Conditions,WindDirDegrees,DateUTC
12:53 AM,35.1,32.0,89,30.40,10.0,ESE,4.6,-,N/A,,Clear,110,2013-03-23 07:53:00
1:21 AM,35.6,33.8,93,30.40,8.0,Calm,Calm,-,N/A,,Partly Cloudy,0,2013-03-23 08:21:00
1:53 AM,35.1,33.1,92,30.40,6.0,Calm,Calm,-,N/A,,Mostly Cloudy,0,2013-03-23 08:53:00
2:53 AM,35.1,33.1,92,30.40,10.0,Calm,Calm,-,N/A,,Clear,0,2013-03-23 09:53:00
3:39 AM,35.6,33.8,93,30.39,10.0,Calm,Calm,-,N/A,,Scattered Clouds,0,2013-03-23 10:39:00
3:53 AM,34.0,32.0,92,30.39,10.0,Calm,Calm,-,N/A,,Mostly Cloudy,0,2013-03-23 10:53:00
4:12 AM,35.6,32.0,87,30.39,10.0,Calm,Calm,-,N/A,,Mostly Cloudy,0,2013-03-23 11:12:00
4:53 AM,35.1,33.1,92,30.39,7.0,East,3.5,-,N/A,,Mostly Cloudy,90,2013-03-23 11:53:00
5:09 AM,35.6,33.8,93,30.39,10.0,Calm,Calm,-,N/A,,Partly Cloudy,0,2013-03-23 12:09:00
5:53 AM,35.1,33.1,92,30.39,10.0,Calm,Calm,-,N/A,,Clear,0,2013-03-23 12:53:00
6:09 AM,33.8,32.0,93,30.39,10.0,Calm,Calm,-,N/A,,Scattered Clouds,0,2013-03-23 13:09:00
6:18 AM,35.6,33.8,93,30.39,10.0,Calm,Calm,-,N/A,,Mostly Cloudy,0,2013-03-23 13:18:00
6:53 AM,35.1,32.0,89,30.39,10.0,Calm,Calm,-,N/A,,Overcast,0,2013-03-23 13:53:00
7:53 AM,36.0,33.1,89,30.39,10.0,Calm,Calm,-,N/A,,Overcast,0,2013-03-23 14:53:00
8:53 AM,37.9,35.1,89,30.39,10.0,Calm,Calm,-,N/A,,Overcast,0,2013-03-23 15:53:00
9:53 AM,39.0,34.0,82,30.39,10.0,Calm,Calm,-,N/A,,Mostly Cloudy,0,2013-03-23 16:53:00
10:14 AM,39.2,33.8,81,30.39,10.0,Calm,Calm,-,N/A,,Mostly Cloudy,0,2013-03-23 17:14:00
10:21 AM,39.2,33.8,81,30.39,10.0,NNE,3.5,-,N/A,,Mostly Cloudy,20,2013-03-23 17:21:00
10:53 AM,41.0,35.1,79,30.39,10.0,Calm,Calm,-,N/A,,Scattered Clouds,0,2013-03-23 17:53:00
11:53 AM,43.0,35.1,74,30.38,10.0,Calm,Calm,-,N/A,,Partly Cloudy,0,2013-03-23 18:53:00
12:53 PM,46.0,35.1,66,30.37,10.0,Calm,Calm,-,N/A,,Scattered Clouds,0,2013-03-23 19:53:00
1:53 PM,46.9,33.1,59,30.35,10.0,Calm,Calm,-,N/A,,Clear,0,2013-03-23 20:53:00
2:53 PM,50.0,28.9,44,30.32,10.0,Variable,4.6,-,N/A,,Clear,0,2013-03-23 21:53:00
3:53 PM,50.0,28.9,44,30.31,10.0,North,6.9,-,N/A,,Clear,10,2013-03-23 22:53:00
4:53 PM,50.0,28.0,43,30.30,10.0,Variable,4.6,-,N/A,,Clear,0,2013-03-23 23:53:00
5:53 PM,50.0,28.0,43,30.30,10.0,West,4.6,-,N/A,,Clear,270,2013-03-24 00:53:00
6:53 PM,48.0,27.0,44,30.28,10.0,Calm,Calm,-,N/A,,Clear,0,2013-03-24 01:53:00
7:53 PM,45.0,28.0,52,30.28,10.0,Calm,Calm,-,N/A,,Clear,0,2013-03-24 02:53:00
8:53 PM,42.1,30.9,65,30.29,10.0,Calm,Calm,-,N/A,,Clear,0,2013-03-24 03:53:00
9:53 PM,39.9,33.1,77,30.30,10.0,Calm,Calm,-,N/A,,Clear,0,2013-03-24 04:53:00
10:53 PM,37.9,32.0,79,30.30,10.0,East,3.5,-,N/A,,Clear,100,2013-03-24 05:53:00
11:53 PM,37.9,32.0,79,30.28,10.0,ESE,3.5,-,N/A,,Clear,110,2013-03-24 06:53:00